This is the latest recevied weather packets stored in our database for station/object NO3U. If no packets are shown the sender has not sent any weather packets the latest 10 day(s).
| Time | Temp. | Humidity | Pressure | Rain* | Wind** | Luminosity | Snow |
|---|---|---|---|---|---|---|---|
| 1777726741 | 3.33° C | 99% | 1016.6 hPa | 3.05 mm | - | 25 W/m² | - |
| 1777726438 | 3.33° C | 99% | 1016.7 hPa | 3.05 mm | - | 31 W/m² | - |
| 1777726130 | 2.78° C | 99% | 1016.7 hPa | 1.27 mm | - | 26 W/m² | - |
| 1777725827 | 3.33° C | 99% | 1016.8 hPa | 0 mm | - | 18 W/m² | - |
| 1777725525 | 2.78° C | 99% | 1016.7 hPa | 1.78 mm | - | 23 W/m² | - |
| 1777725222 | 2.78° C | 99% | 1016.8 hPa | 1.78 mm | - | 34 W/m² | - |
| 1777724919 | 2.78° C | 99% | 1016.7 hPa | 1.27 mm | - | 40 W/m² | - |
| 1777724614 | 2.78° C | 99% | 1016.7 hPa | 1.27 mm | - | 32 W/m² | - |
| 1777724313 | 2.78° C | 99% | 1016.7 hPa | 0 mm | - | 26 W/m² | - |
| 1777724010 | 2.78° C | 99% | 1016.7 hPa | 0 mm | - | 31 W/m² | - |
| 1777723707 | 2.78° C | 99% | 1016.7 hPa | 0 mm | - | 30 W/m² | - |
| 1777723403 | 2.78° C | 99% | 1016.8 hPa | 0 mm | - | 35 W/m² | - |
| 1777723101 | 2.78° C | 99% | 1016.5 hPa | 0 mm | - | 48 W/m² | - |
| 1777722798 | 2.78° C | 99% | 1016.8 hPa | 0 mm | - | 45 W/m² | - |
| 1777722494 | 2.78° C | 99% | 1016.7 hPa | 0 mm | - | 38 W/m² | - |
| 1777722191 | 2.78° C | 99% | 1016.7 hPa | 0 mm | - | 37 W/m² | - |
| 1777721888 | 2.78° C | 99% | 1016.5 hPa | 0 mm | - | 45 W/m² | - |
| 1777721586 | 2.78° C | 99% | 1016.6 hPa | 0 mm | - | 67 W/m² | - |
| 1777721284 | 2.22° C | 99% | 1016.5 hPa | 0 mm | - | 79 W/m² | - |
| 1777720981 | 2.22° C | 99% | 1016.7 hPa | 0 mm | - | 68 W/m² | - |
| 1777720678 | 2.22° C | 99% | 1016.5 hPa | 0 mm | - | 46 W/m² | - |
| 1777720376 | 2.22° C | 99% | 1016.5 hPa | 0 mm | - | 30 W/m² | - |
| 1777720073 | 2.22° C | 99% | 1016.4 hPa | 0 mm | - | 20 W/m² | - |
| 1777719771 | 2.22° C | 99% | 1016.4 hPa | 0 mm | - | 15 W/m² | - |
| 1777719469 | 2.22° C | 99% | 1016.3 hPa | 0 mm | - | 14 W/m² | - |
* Rain latest hour (hover to see other rain measurements)
** Current wind speed in m/s (hover to see current wind gust speed)